KB9ZI Weather Reports


Display with metric or nautical units.
time (UTC)temp
F
wind
direction
speed
MPH
gust
MPH
rain 1hr
in
rain 24hr
in
rain mn
in
humidity
%
barometer
mb
20260505031302 45 241 0.0 1.0 0.00 0.00 0.00 58 1006.2
20260505031057 45 241 0.0 1.0 0.00 0.00 0.00 58 1006.3
20260505030906 45 241 0.0 1.0 0.00 0.00 0.00 58 1006.3
20260505030902 45 241 0.0 1.0 0.00 0.00 0.00 58 1006.3
20260505030701 45 241 0.0 1.0 0.00 0.00 0.00 58 1006.3
20260505030649 45 241 0.0 1.0 0.00 0.00 0.00 56 1006.2
20260505030625 45 241 0.0 1.0 0.00 0.00 0.00 56 1006.3
20260505030232 46 241 0.0 1.0 0.00 0.00 0.00 57 1006.2
20260505030032 46 241 0.0 1.0 0.00 0.00 0.00 56 1006.3
20260505025932 46 241 0.0 1.0 0.00 0.00 0.00 54 1006.3
20260505025903 46 241 0.0 1.0 0.00 0.00 0.00 54 1006.2
20260505025654 46 241 0.0 1.0 0.00 0.00 0.00 54 1006.2
20260505025644 46 241 0.0 1.0 0.00 0.00 0.00 54 1006.2
20260505025616 46 241 0.0 1.0 0.00 0.00 0.00 54 1006.2
20260505025202 46 241 0.0 1.0 0.00 0.00 0.00 54 1006.2
20260505025006 46 241 0.0 1.0 0.00 0.00 0.00 54 1006.1
20260505024900 46 241 0.0 1.0 0.00 0.00 0.00 54 1006.1
20260505024800 46 241 0.0 1.0 0.00 0.00 0.00 54 1006.0
20260505024649 47 241 0.0 2.0 0.00 0.00 0.00 54 1006.2
20260505024642 47 241 0.0 1.0 0.00 0.00 0.00 54 1006.1
20260505024616 47 241 0.0 2.0 0.00 0.00 0.00 54 1006.2
20260505024250 47 241 0.0 4.0 0.00 0.00 0.00 54 1006.1
20260505023952 47 241 0.0 4.0 0.00 0.00 0.00 54 1006.1
20260505023832 47 241 0.0 4.0 0.00 0.00 0.00 54 1006.0
20260505023749 47 241 0.0 4.0 0.00 0.00 0.00 54 1006.0
20260505023547 47 241 0.0 4.0 0.00 0.00 0.00 54 1006.0
20260505023349 47 240 0.0 4.0 0.00 0.00 0.00 53 1006.0
20260505023302 47 240 0.0 4.0 0.00 0.00 0.00 53 1006.0
20260505023250 47 245 0.0 2.0 0.00 0.00 0.00 53 1005.9
20260505022949 47 245 0.0 3.0 0.00 0.00 0.00 52 1005.9
20260505022805 47 245 0.0 3.0 0.00 0.00 0.00 52 1005.9
20260505022748 47 245 0.0 3.0 0.00 0.00 0.00 52 1005.9
20260505022544 47 245 0.0 3.0 0.00 0.00 0.00 52 1005.9
20260505022337 47 245 0.0 3.0 0.00 0.00 0.00 52 1005.9
20260505022305 47 245 0.0 3.0 0.00 0.00 0.00 52 1005.9
20260505022129 47 245 0.0 3.0 0.00 0.00 0.00 51 1005.9
20260505021935 47 244 0.0 3.0 0.00 0.00 0.00 52 1005.8
20260505021804 47 235 0.0 2.0 0.00 0.00 0.00 51 1005.8
20260505021734 47 235 0.0 2.0 0.00 0.00 0.00 51 1005.8
20260505021635 47 235 0.0 4.0 0.00 0.00 0.00 51 1005.8
20260505021307 47 235 0.0 4.0 0.00 0.00 0.00 51 1005.8
20260505021131 47 235 0.0 4.0 0.00 0.00 0.00 51 1005.8
20260505020930 47 235 0.0 4.0 0.00 0.00 0.00 52 1005.7
20260505020731 47 235 0.0 4.0 0.00 0.00 0.00 50 1005.6
20260505020524 47 214 0.0 4.0 0.00 0.00 0.00 51 1005.6
20260505020324 47 213 0.0 4.0 0.00 0.00 0.00 51 1005.6
20260505020231 47 213 0.0 4.0 0.00 0.00 0.00 51 1005.6
20260505020121 47 238 0.0 4.0 0.00 0.00 0.00 50 1005.6
20260505020026 48 238 0.0 4.0 0.00 0.00 0.00 51 1005.6
20260505015723 48 238 0.0 4.0 0.00 0.00 0.00 50 1005.6
20260505015516 48 237 0.0 4.0 0.00 0.00 0.00 50 1005.6
20260505015312 48 238 0.0 4.0 0.00 0.00 0.00 50 1005.5
20260505015231 48 220 0.0 4.0 0.00 0.00 0.00 50 1005.5
20260505015112 48 290 0.0 4.0 0.00 0.00 0.00 50 1005.5
20260505014920 48 255 0.0 9.0 0.00 0.00 0.00 50 1005.5
20260505014707 48 255 0.0 9.0 0.00 0.00 0.00 50 1005.5
20260505014434 48 155 0.0 9.0 0.00 0.00 0.00 49 1005.5
20260505014339 48 227 0.0 9.0 0.00 0.00 0.00 49 1005.5
20260505014236 48 227 0.0 9.0 0.00 0.00 0.00 49 1005.5
20260505014034 49 289 0.0 9.0 0.00 0.00 0.00 49 1005.4
20260505013844 49 212 0.0 9.0 0.00 0.00 0.00 48 1005.4
20260505013734 49 212 0.0 9.0 0.00 0.00 0.00 48 1005.4
20260505013635 49 212 0.0 9.0 0.00 0.00 0.00 48 1005.5
20260505013432 49 247 0.0 9.0 0.00 0.00 0.00 48 1005.4
20260505013236 49 250 0.0 6.0 0.00 0.00 0.00 51 1005.3
20260505013008 49 250 0.0 6.0 0.00 0.00 0.00 51 1005.3
20260505012735 49 245 0.0 6.0 0.00 0.00 0.00 49 1005.3
20260505012729 49 245 0.0 6.0 0.00 0.00 0.00 51 1005.3
20260505012645 49 197 0.0 4.0 0.00 0.00 0.00 52 1005.2
20260505012336 49 219 0.0 6.0 0.00 0.00 0.00 51 1005.2
20260505012233 49 219 0.0 6.0 0.00 0.00 0.00 52 1005.2
20260505012133 49 3 0.0 6.0 0.00 0.00 0.00 52 1005.1
20260505011942 50 62 0.0 11.0 0.00 0.00 0.00 51 1005.2
20260505011734 50 62 0.0 11.0 0.00 0.00 0.00 51 1005.0
20260505011709 50 221 0.0 11.0 0.00 0.00 0.00 51 1005.0
20260505011441 50 161 0.0 11.0 0.00 0.00 0.00 51 1005.0
20260505011229 50 258 0.0 11.0 0.00 0.00 0.00 51 1005.0
20260505011039 50 264 0.0 11.0 0.00 0.00 0.00 51 1004.9
20260505010835 50 264 0.0 11.0 0.00 0.00 0.00 50 1004.9
20260505010734 50 224 0.0 11.0 0.00 0.00 0.00 50 1004.9
20260505010635 50 223 0.0 11.0 0.00 0.00 0.00 50 1004.8
20260505010436 50 223 0.0 11.0 0.00 0.00 0.00 50 1004.7
20260505010233 51 293 0.0 11.0 0.00 0.00 0.00 49 1004.7
20260505010136 51 250 0.0 11.0 0.00 0.00 0.00 49 1004.7
20260505010014 51 257 0.0 12.0 0.00 0.00 0.00 50 1004.6
20260505005956 51 257 0.0 12.0 0.00 0.00 0.00 50 1004.7
20260505005635 51 257 0.0 12.0 0.00 0.00 0.00 50 1004.6
20260505005434 51 235 0.0 12.0 0.00 0.00 0.00 50 1004.5
20260505005230 51 252 0.0 12.0 0.00 0.00 0.00 49 1004.5
20260505005031 51 259 0.0 12.0 0.00 0.00 0.00 49 1004.5
20260505005015 51 224 0.0 11.0 0.00 0.00 0.00 50 1004.4
20260505004950 51 238 0.0 6.0 0.00 0.00 0.00 50 1004.4
20260505004631 51 248 0.0 11.0 0.00 0.00 0.00 51 1004.3
20260505004536 51 79 0.0 11.0 0.00 0.00 0.00 50 1004.3
20260505004234 51 79 0.0 11.0 0.00 0.00 0.00 50 1004.3
20260505004038 51 247 0.0 11.0 0.00 0.00 0.00 48 1004.3
20260505003958 51 235 0.0 11.0 0.00 0.00 0.00 48 1004.2
20260505003944 51 250 0.0 11.0 0.00 0.00 0.00 48 1004.3
20260505003633 51 257 0.0 4.0 0.00 0.00 0.00 48 1004.2
20260505003435 52 251 0.0 11.0 0.00 0.00 0.00 48 1004.2
20260505003220 52 251 0.0 11.0 0.00 0.00 0.00 48 1004.0
20260505003022 52 251 0.0 11.0 0.00 0.00 0.00 48 1004.0
20260505002822 52 251 0.0 11.0 0.00 0.00 0.00 48 1004.0
20260505002720 52 251 0.0 11.0 0.00 0.00 0.00 48 1003.9
20260505002619 52 233 0.0 11.0 0.00 0.00 0.00 48 1003.9
20260505002523 52 154 0.0 6.0 0.00 0.00 0.00 47 1003.8
20260505002218 53 266 0.0 12.0 0.00 0.00 0.00 50 1003.9
20260505002034 53 240 0.0 12.0 0.00 0.00 0.00 50 1003.8
20260505001822 53 240 0.0 12.0 0.00 0.00 0.00 50 1003.9
20260505001720 53 240 0.0 12.0 0.00 0.00 0.00 50 1003.9
20260505001623 53 240 0.0 12.0 0.00 0.00 0.00 50 1003.9
20260505001418 53 254 0.0 12.0 0.00 0.00 0.00 49 1003.8
20260505001218 53 217 0.0 6.0 0.00 0.00 0.00 49 1003.7
20260505001029 53 252 0.0 9.0 0.00 0.00 0.00 49 1003.7
20260505000923 53 289 0.0 9.0 0.00 0.00 0.00 49 1003.7
20260505000717 53 203 0.0 9.0 0.00 0.00 0.00 49 1003.7
20260505000605 53 353 0.0 15.0 0.00 0.00 0.00 47 1003.7
20260505000405 53 228 0.0 15.0 0.00 0.00 0.00 49 1003.7
20260505000219 53 268 0.0 15.0 0.00 0.00 0.00 49 1003.7
20260505000204 53 217 0.0 15.0 0.00 0.00 0.00 49 1003.7
20260505000005 53 228 0.0 15.0 0.00 0.00 0.00 48 1003.8
20260504235806 53 228 0.0 15.0 0.00 0.00 0.00 48 1003.7
20260504235719 53 228 0.0 15.0 0.00 0.00 0.00 48 1003.7
20260504235553 53 252 0.0 13.0 0.00 0.00 0.00 47 1003.6
20260504235354 53 255 0.0 13.0 0.00 0.00 0.00 47 1003.7
20260504235209 53 257 0.0 12.0 0.00 0.00 0.00 47 1003.7
20260504235152 53 0 0.0 11.0 0.00 0.00 0.00 47 1003.7
20260504235005 53 259 0.0 11.0 0.00 0.00 0.00 48 1003.6
20260504234957 53 231 0.0 11.0 0.00 0.00 0.00 47 1003.7
20260504234925 53 257 0.0 11.0 0.00 0.00 0.00 46 1003.7
20260504234545 53 252 0.0 10.0 0.00 0.00 0.00 48 1003.6
20260504234441 0 0.0 0.0 0.00 0.00 0.00 1003.5
20260504234202 54 192 0.0 7.0 0.00 0.00 0.00 47 1003.7
20260504234132 54 192 0.0 7.0 0.00 0.00 0.00 47 1003.7
20260504233932 54 192 0.0 10.0 0.00 0.00 0.00 47 1003.6
20260504233704 54 192 0.0 10.0 0.00 0.00 0.00 47 1003.5
20260504233506 54 192 0.0 10.0 0.00 0.00 0.00 47 1003.6
20260504233306 54 255 0.0 10.0 0.00 0.00 0.00 46 1003.6
20260504233204 54 254 0.0 10.0 0.00 0.00 0.00 47 1003.4
20260504233107 54 234 0.0 10.0 0.00 0.00 0.00 46 1003.5
20260504232905 54 257 0.0 7.0 0.00 0.00 0.00 46 1003.4
20260504232813 55 118 0.0 7.0 0.00 0.00 0.00 47 1003.3
20260504232705 55 118 0.0 7.0 0.00 0.00 0.00 47 1003.3
20260504232505 55 118 0.0 7.0 0.00 0.00 0.00 47 1003.4
20260504232252 55 118 0.0 11.0 0.00 0.00 0.00 47 1003.3
20260504232149 55 118 0.0 11.0 0.00 0.00 0.00 47 1003.3
20260504232052 55 118 0.0 11.0 0.00 0.00 0.00 47 1003.4
20260504231851 55 118 0.0 11.0 0.00 0.00 0.00 47 1003.3
20260504231649 55 243 0.0 11.0 0.00 0.00 0.00 46 1003.3
20260504231449 55 237 0.0 11.0 0.00 0.00 0.00 46 1003.2
20260504231251 55 226 0.0 13.0 0.00 0.00 0.00 47 1003.2
20260504231148 55 178 0.0 13.0 0.00 0.00 0.00 51 1003.2
20260504231051 55 157 0.0 13.0 0.00 0.00 0.00 48 1003.2
20260504230850 54 257 0.0 13.0 0.00 0.00 0.00 48 1003.2
20260504230649 55 238 0.0 13.0 0.00 0.00 0.00 47 1003.2
20260504230451 55 241 0.0 13.0 0.00 0.00 0.00 46 1003.1
20260504230251 55 259 0.0 14.0 0.00 0.00 0.00 46 1003.2
20260504230149 55 265 0.0 14.0 0.00 0.00 0.00 47 1003.1
20260504230104 55 240 0.0 14.0 0.00 0.00 0.00 47 1003.0
20260504225947 55 248 0.0 14.0 0.00 0.00 0.00 46 1003.0
20260504225649 55 228 0.0 14.0 0.00 0.00 0.00 45 1003.0
20260504225451 56 237 0.0 14.0 0.00 0.00 0.00 45 1002.9
20260504225254 56 272 0.0 12.0 0.00 0.00 0.00 45 1003.1
20260504225149 56 228 0.0 12.0 0.00 0.00 0.00 45 1003.1
20260504225051 56 274 0.0 14.0 0.00 0.00 0.00 45 1003.0
20260504224850 56 230 0.0 14.0 0.00 0.00 0.00 45 1002.9
20260504224649 56 220 0.0 14.0 0.00 0.00 0.00 45 1002.9
20260504224450 57 282 0.0 14.0 0.00 0.00 0.00 46 1002.9
20260504224350 57 340 0.0 14.0 0.00 0.00 0.00 45 1002.6
20260504224147 57 228 0.0 14.0 0.00 0.00 0.00 44 1002.8
20260504224051 57 310 0.0 9.0 0.00 0.00 0.00 45 1002.8
20260504223850 57 168 0.0 11.0 0.00 0.00 0.00 46 1002.7
20260504223650 57 266 0.0 11.0 0.00 0.00 0.00 46 1002.7
20260504223451 57 266 0.0 11.0 0.00 0.00 0.00 46 1002.7
20260504223247 57 206 0.0 11.0 0.00 0.00 0.00 46 1002.7
20260504223145 57 251 0.0 11.0 0.00 0.00 0.00 46 1002.7
20260504223049 57 250 0.0 11.0 0.00 0.00 0.00 45 1002.6
20260504222945 57 282 0.0 9.0 0.00 0.00 0.00 45 1002.7
20260504222648 58 262 0.0 9.0 0.00 0.00 0.00 45 1002.6
20260504222433 58 262 0.0 9.0 0.00 0.00 0.00 45 1002.5
20260504222232 58 262 0.0 9.0 0.00 0.00 0.00 45 1002.3
20260504222131 58 262 0.0 9.0 0.00 0.00 0.00 45 1002.3
20260504222032 58 262 0.0 9.0 0.00 0.00 0.00 45 1002.3
20260504221805 58 269 0.0 6.0 0.00 0.00 0.00 45 1002.3
20260504221631 58 285 0.0 6.0 0.00 0.00 0.00 46 1002.2
20260504221605 58 204 0.0 3.0 0.00 0.00 0.00 46 1002.3
20260504221407 0 0.0 0.0 0.00 0.00 0.00 1002.3
20260504221307 0 0.0 0.0 0.00 0.00 0.00 1002.1
20260504221134 0 0.0 0.0 0.00 0.00 0.00 1002.1
20260504220950 0 0.0 0.0 0.00 0.00 0.00 1002.0
20260504220737 0 0.0 0.0 0.00 0.00 0.00 1002.0
20260504220638 0 0.0 0.0 0.00 0.00 0.00 1002.1
20260504220535 0 0.0 0.0 0.00 0.00 0.00 1002.1
20260504220331 59 214 0.0 9.0 0.00 0.00 0.00 45 1002.0
20260504220106 59 214 0.0 12.0 0.00 0.00 0.00 45 1001.9
20260504215903 59 214 0.0 12.0 0.00 0.00 0.00 45 1002.0
20260504215703 59 214 0.0 12.0 0.00 0.00 0.00 45 1001.8
20260504215618 59 214 0.0 12.0 0.00 0.00 0.00 45 1001.8
20260504215537 59 323 0.0 12.0 0.00 0.00 0.00 45 1001.8
20260504215231 59 237 0.0 9.0 0.00 0.00 0.00 45 1001.9
20260504215102 59 217 0.0 9.0 0.00 0.00 0.00 45 1001.8
20260504215031 59 289 0.0 9.0 0.00 0.00 0.00 46 1001.8
20260504214830 58 0 0.0 6.0 0.00 0.00 0.00 45 1001.8
20260504214631 59 254 0.0 6.0 0.00 0.00 0.00 45 1001.8
20260504214606 59 254 0.0 6.0 0.00 0.00 0.00 45 1001.7
20260504214431 59 254 0.0 11.0 0.00 0.00 0.00 45 1001.7
20260504214230 59 254 0.0 11.0 0.00 0.00 0.00 45 1001.7
20260504214106 59 254 0.0 11.0 0.00 0.00 0.00 45 1001.7
20260504214035 59 254 0.0 11.0 0.00 0.00 0.00 45 1001.6
20260504213807 59 210 0.0 11.0 0.00 0.00 0.00 46 1001.5
20260504213606 59 261 0.0 11.0 0.00 0.00 0.00 45 1001.4
20260504213509 59 250 0.0 10.0 0.00 0.00 0.00 48 1001.4
20260504213207 59 223 0.0 10.0 0.00 0.00 0.00 45 1001.5
20260504213108 59 223 0.0 10.0 0.00 0.00 0.00 45 1001.5
20260504213006 59 227 0.0 10.0 0.00 0.00 0.00 45 1001.4
20260504212806 60 227 0.0 6.0 0.00 0.00 0.00 43 1001.4
20260504212605 60 186 0.0 6.0 0.00 0.00 0.00 43 1001.4
20260504212406 59 271 0.0 6.0 0.00 0.00 0.00 46 1001.3
20260504212208 62 234 0.0 3.0 0.00 0.00 0.00 44 1001.4
20260504212108 62 234 0.0 7.0 0.00 0.00 0.00 44 1001.4
20260504212012 62 234 0.0 7.0 0.00 0.00 0.00 44 1001.4
20260504211847 62 234 0.0 15.0 0.00 0.00 0.00 44 1001.4
20260504211603 62 234 0.0 15.0 0.00 0.00 0.00 44 1001.3
20260504211549 62 234 0.0 15.0 0.00 0.00 0.00 44 1001.3
20260504211349 62 234 0.0 15.0 0.00 0.00 0.00 44 1001.3
20260504211134 62 200 0.0 15.0 0.00 0.00 0.00 44 1001.4
20260504211056 62 252 0.0 15.0 0.00 0.00 0.00 43 1001.4
20260504210939 62 285 0.0 15.0 0.00 0.00 0.00 45 1001.4
20260504210845 62 303 0.0 13.0 0.00 0.00 0.00 44 1001.1
20260504210831 62 188 0.0 13.0 0.00 0.00 0.00 45 1001.2
20260504210534 62 282 0.0 13.0 0.00 0.00 0.00 44 1001.0
20260504210411 61 238 0.0 13.0 0.00 0.00 0.00 46 1001.3
20260504210337 61 238 0.0 13.0 0.00 0.00 0.00 44 1001.3
20260504210333 61 238 0.0 13.0 0.00 0.00 0.00 46 1001.2
20260504205928 61 250 0.0 13.0 0.00 0.00 0.00 43 1001.2
20260504205731 62 274 0.0 10.0 0.00 0.00 0.00 43 1001.1
20260504205549 62 274 0.0 10.0 0.00 0.00 0.00 43 1001.1
20260504205503 62 274 0.0 10.0 0.00 0.00 0.00 43 1001.2
20260504205339 62 241 0.0 14.0 0.00 0.00 0.00 43 1001.3
20260504205327 62 299 0.0 14.0 0.00 0.00 0.00 41 1001.2
20260504205250 62 250 0.0 14.0 0.00 0.00 0.00 43 1001.2
20260504204850 62 254 0.0 14.0 0.00 0.00 0.00 45 1001.3
20260504204650 62 265 0.0 14.0 0.00 0.00 0.00 43 1001.2
20260504204548 62 241 0.0 14.0 0.00 0.00 0.00 43 1001.2
20260504204532 62 279 0.0 14.0 0.00 0.00 0.00 42 1001.2
20260504204329 60 231 0.0 2.0 0.00 0.00 0.00 46 1001.1
20260504204320 62 248 0.0 10.0 0.00 0.00 0.00 43 1001.2
20260504204247 60 231 0.0 2.0 0.00 0.00 0.00 46 1001.1
20260504203855 60 231 0.0 2.0 0.00 0.00 0.00 46 1001.0
20260504203651 60 233 0.0 1.0 0.00 0.00 0.00 46 1001.0
20260504203531 61 233 0.0 10.0 0.00 0.00 0.00 46 1001.1
20260504203452 61 233 0.0 10.0 0.00 0.00 0.00 46 1001.1
20260504203253 61 233 0.0 11.0 0.00 0.00 0.00 46 1001.1
20260504203039 61 233 0.0 14.0 0.00 0.00 0.00 46 1001.0
20260504203034 61 233 0.0 14.0 0.00 0.00 0.00 46 1001.1
20260504202833 61 233 0.0 15.0 0.00 0.00 0.00 46 1001.1
20260504202634 61 233 0.0 15.0 0.00 0.00 0.00 46 1001.0
20260504202525 61 243 0.0 15.0 0.00 0.00 0.00 46 1001.0
20260504202432 60 135 0.0 15.0 0.00 0.00 0.00 46 1001.1
20260504202340 61 247 0.0 15.0 0.00 0.00 0.00 42 1001.1
20260504202319 61 230 0.0 15.0 0.00 0.00 0.00 42 1001.1
20260504202301 60 248 0.0 15.0 0.00 0.00 0.00 43 1001.0
20260504201834 0 197 0.0 3.0 0.00 0.00 0.00 1001.0
20260504201632 0 197 0.0 3.0 0.00 0.00 0.00 1001.0
20260504201526 0 197 0.0 3.0 0.00 0.00 0.00 1000.9
20260504201424 61 197 0.0 9.0 0.00 0.00 0.00 43 1001.0
20260504201306 61 235 0.0 11.0 0.00 0.00 0.00 43 1000.9
20260504201250 61 197 0.0 11.0 0.00 0.00 0.00 43 1000.9
20260504201006 61 235 0.0 11.0 0.00 0.00 0.00 43 1000.9
20260504200807 61 235 0.0 11.0 0.00 0.00 0.00 43 1001.0
20260504200519 61 235 0.0 11.0 0.00 0.00 0.00 43 1000.8
20260504200425 61 283 0.0 10.0 0.00 0.00 0.00 44 1000.9
20260504200313 61 240 0.0 13.0 0.00 0.00 0.00 45 1000.8
20260504200244 61 217 0.0 13.0 0.00 0.00 0.00 43 1000.8
20260504195923 62 323 0.0 13.0 0.00 0.00 0.00 45 1000.8
20260504195727 62 323 0.0 13.0 0.00 0.00 0.00 45 1000.4
20260504195524 62 281 0.0 13.0 0.00 0.00 0.00 47 1000.7
20260504195315 62 228 0.0 12.0 0.00 0.00 0.00 44 1000.9
20260504195110 62 261 0.0 12.0 0.00 0.00 0.00 44 1000.8
20260504195020 62 257 0.0 11.0 0.00 0.00 0.00 48 1000.8
20260504194903 62 154 0.0 11.0 0.00 0.00 0.00 48 1000.8
20260504194807 62 110 0.0 14.0 0.00 0.00 0.00 45 1000.8
20260504194506 62 265 0.0 14.0 0.00 0.00 0.00 48 1000.8
20260504194310 60 254 0.0 14.0 0.00 0.00 0.00 48 1000.7
20260504194305 61 248 0.0 14.0 0.00 0.00 0.00 48 1000.7
20260504194232 61 278 0.0 14.0 0.00 0.00 0.00 47 1000.7
20260504193901 60 237 0.0 14.0 0.00 0.00 0.00 45 1000.7
20260504193701 61 271 0.0 7.0 0.00 0.00 0.00 43 1000.6
20260504193502 62 259 0.0 13.0 0.00 0.00 0.00 45 1000.6
20260504193349 62 172 0.0 13.0 0.00 0.00 0.00 45 1000.3
20260504193256 62 97 0.0 14.0 0.00 0.00 0.00 46 1000.4
20260504193223 62 327 0.0 13.0 0.00 0.00 0.00 46 1000.6
20260504192835 62 85 0.0 14.0 0.00 0.00 0.00 48 1000.4
20260504192637 62 219 0.0 14.0 0.00 0.00 0.00 49 1000.4
20260504192501 62 231 0.0 18.0 0.00 0.00 0.00 47 1000.6
20260504192431 61 216 0.0 18.0 0.00 0.00 0.00 47 1000.6
20260504192304 61 237 0.0 18.0 0.00 0.00 0.00 44 1000.3
20260504192255 61 138 0.0 18.0 0.00 0.00 0.00 44 1000.4
20260504192222 61 243 0.0 18.0 0.00 0.00 0.00 44 1000.4
20260504191822 61 237 0.0 18.0 0.00 0.00 0.00 44 1000.3
20260504191716 62 244 0.0 18.0 0.00 0.00 0.00 45 1000.2
20260504191506 62 250 0.0 12.0 0.00 0.00 0.00 45 1000.2
20260504191420 62 250 0.0 12.0 0.00 0.00 0.00 45 1000.2
20260504191213 62 230 0.0 12.0 0.00 0.00 0.00 45 1000.2
20260504191011 62 233 0.0 12.0 0.00 0.00 0.00 46 1000.2
20260504190938 62 276 0.0 12.0 0.00 0.00 0.00 45 1000.2
20260504190808 62 274 0.0 10.0 0.00 0.00 0.00 45 1000.2
20260504190607 61 252 0.0 18.0 0.00 0.00 0.00 48 1000.2
20260504190506 61 247 0.0 18.0 0.00 0.00 0.00 46 1000.2
20260504190431 61 247 0.0 18.0 0.00 0.00 0.00 45 1000.2
20260504190229 60 261 0.0 18.0 0.00 0.00 0.00 46 1000.3
20260504190222 60 250 0.0 18.0 0.00 0.00 0.00 47 1000.3
20260504190149 60 282 0.0 18.0 0.00 0.00 0.00 45 1000.3
20260504185807 60 279 0.0 18.0 0.00 0.00 0.00 45 1000.4
20260504185609 60 258 0.0 17.0 0.00 0.00 0.00 43 1000.3
20260504185423 60 251 0.0 14.0 0.00 0.00 0.00 45 1000.4
20260504185406 60 264 0.0 14.0 0.00 0.00 0.00 45 1000.3
20260504185220 60 221 0.0 15.0 0.00 0.00 0.00 42 1000.2
20260504185215 60 196 0.0 14.0 0.00 0.00 0.00 45 1000.2
20260504185147 60 221 0.0 9.0 0.00 0.00 0.00 42 1000.2
20260504184858 60 221 0.0 15.0 0.00 0.00 0.00 42 1000.3
20260504184531 60 221 0.0 15.0 0.00 0.00 0.00 42 1000.1
20260504184408 60 221 0.0 15.0 0.00 0.00 0.00 42 1000.1
20260504184331 60 221 0.0 15.0 0.00 0.00 0.00 42 1000.1
20260504184210 60 254 0.0 18.0 0.00 0.00 0.00 44 1000.2
20260504184156 60 217 0.0 18.0 0.00 0.00 0.00 42 1000.0
20260504184124 60 254 0.0 18.0 0.00 0.00 0.00 44 1000.2
20260504183709 60 261 0.0 18.0 0.00 0.00 0.00 41 1000.1
20260504183509 60 259 0.0 18.0 0.00 0.00 0.00 42 1000.0
20260504183409 60 278 0.0 18.0 0.00 0.00 0.00 41 1000.0
20260504183310 60 258 0.0 13.0 0.00 0.00 0.00 41 1000.1
20260504183209 61 262 0.0 14.0 0.00 0.00 0.00 44 1000.0
20260504182910 61 271 0.0 14.0 0.00 0.00 0.00 40 1000.0
20260504182710 62 313 0.0 14.0 0.00 0.00 0.00 40 999.8
20260504182511 62 313 0.0 16.0 0.00 0.00 0.00 40 999.9
20260504182420 62 233 0.0 16.0 0.00 0.00 0.00 42 999.9
20260504182411 62 261 0.0 16.0 0.00 0.00 0.00 41 999.8
20260504182110 63 243 0.0 16.0 0.00 0.00 0.00 42 999.8
20260504181909 63 244 0.0 16.0 0.00 0.00 0.00 46 999.7
20260504181709 63 252 0.0 16.0 0.00 0.00 0.00 39 999.7
20260504181610 62 116 0.0 10.0 0.00 0.00 0.00 40 999.5
20260504181408 62 142 0.0 10.0 0.00 0.00 0.00 40 999.7
20260504181309 62 142 0.0 10.0 0.00 0.00 0.00 40 999.7
20260504181108 63 245 0.0 10.0 0.00 0.00 0.00 40 999.7
20260504180918 63 295 0.0 10.0 0.00 0.00 0.00 40 999.7
20260504180904 63 269 0.0 10.0 0.00 0.00 0.00 40 999.6
20260504180709 64 243 0.0 10.0 0.00 0.00 0.00 44 999.5
20260504180509 64 209 0.0 10.0 0.00 0.00 0.00 45 999.5
20260504180402 64 261 0.0 10.0 0.00 0.00 0.00 43 999.4
20260504180310 64 179 0.0 10.0 0.00 0.00 0.00 44 999.4
20260504180109 64 247 0.0 10.0 0.00 0.00 0.00 42 999.3
20260504180017 65 240 0.0 9.0 0.00 0.00 0.00 46 999.1
20260504175902 65 240 0.0 10.0 0.00 0.00 0.00 46 999.1
20260504175710 64 109 0.0 10.0 0.00 0.00 0.00 45 999.1
20260504175510 64 241 0.0 10.0 0.00 0.00 0.00 43 999.3
20260504175403 64 217 0.0 11.0 0.00 0.00 0.00 41 999.2
20260504175310 65 217 0.0 11.0 0.00 0.00 0.00 44 999.2
20260504175109 64 189 0.0 11.0 0.00 0.00 0.00 46 999.1
20260504174916 64 261 0.0 11.0 0.00 0.00 0.00 45 999.2
20260504174901 64 241 0.0 11.0 0.00 0.00 0.00 45 999.2
20260504174716 64 254 0.0 11.0 0.00 0.00 0.00 43 999.2
20260504174711 64 259 0.0 11.0 0.00 0.00 0.00 45 999.2
20260504174701 64 240 0.0 11.0 0.00 0.00 0.00 47 999.2
20260504174639 64 245 0.0 11.0 0.00 0.00 0.00 47 999.1
20260504174110 64 272 0.0 11.0 0.00 0.00 0.00 44 999.1
20260504173915 64 230 0.0 11.0 0.00 0.00 0.00 46 999.0
20260504173903 64 230 0.0 11.0 0.00 0.00 0.00 46 999.1
20260504173710 64 230 0.0 11.0 0.00 0.00 0.00 46 999.1
20260504173513 64 210 0.0 9.0 0.00 0.00 0.00 47 999.0
20260504173352 64 250 0.0 9.0 0.00 0.00 0.00 46 999.0
20260504173308 0 219 0.0 4.0 0.00 0.00 0.00 999.0
20260504173107 64 219 0.0 5.0 0.00 0.00 0.00 48 999.0
20260504173011 64 219 0.0 7.0 0.00 0.00 0.00 48 998.9
20260504172852 64 219 0.0 7.0 0.00 0.00 0.00 48 998.9
20260504172705 64 219 0.0 7.0 0.00 0.00 0.00 48 999.0
20260504172505 64 219 0.0 7.0 0.00 0.00 0.00 48 999.0
20260504172352 64 219 0.0 7.0 0.00 0.00 0.00 48 999.0
20260504172304 64 248 0.0 10.0 0.00 0.00 0.00 48 999.0
20260504172107 64 240 0.0 13.0 0.00 0.00 0.00 47 998.9
20260504171907 64 281 0.0 13.0 0.00 0.00 0.00 47 998.9
20260504171850 64 281 0.0 13.0 0.00 0.00 0.00 48 998.9
20260504171707 63 259 0.0 15.0 0.00 0.00 0.00 48 998.9
20260504171454 63 230 0.0 15.0 0.00 0.00 0.00 49 999.0
20260504171356 63 237 0.0 15.0 0.00 0.00 0.00 45 999.0
20260504171352 63 244 0.0 15.0 0.00 0.00 0.00 46 999.0
20260504171053 64 258 0.0 15.0 0.00 0.00 0.00 49 998.8
20260504170853 64 258 0.0 15.0 0.00 0.00 0.00 49 999.0
20260504170654 64 151 0.0 7.0 0.00 0.00 0.00 50 998.8
20260504170645 64 243 0.0 13.0 0.00 0.00 0.00 50 998.9
20260504170625 64 243 0.0 7.0 0.00 0.00 0.00 50 998.8
20260504170257 64 243 0.0 17.0 0.00 0.00 0.00 50 998.9
20260504160337 63 238 0.0 6.0 0.00 0.00 0.00 46 998.7
20260504160155 63 261 0.0 11.0 0.00 0.00 0.00 47 998.8
20260504160120 63 261 0.0 14.0 0.00 0.00 0.00 47 998.7
20260504150928 61 240 0.0 9.0 0.00 0.00 0.00 49 998.7
20260504150814 61 272 0.0 9.0 0.00 0.00 0.00 49 998.7
20260504150712 60 290 0.0 10.0 0.00 0.00 0.00 50 998.7
20260504150512 60 290 0.0 10.0 0.00 0.00 0.00 50 998.6
20260504150312 60 290 0.0 10.0 0.00 0.00 0.00 50 998.6
20260504150119 61 248 0.0 10.0 0.00 0.00 0.00 49 998.7
20260504141256 61 247 0.0 10.0 0.00 0.00 0.00 54 998.2
20260504141056 61 247 0.0 10.0 0.00 0.00 0.00 54 998.2
20260504140847 62 233 0.0 10.0 0.00 0.00 0.00 54 998.1
20260504140754 62 262 0.0 10.0 0.00 0.00 0.00 54 998.1
20260504140632 62 262 0.0 10.0 0.00 0.00 0.00 54 998.1
20260504140432 62 303 0.0 7.0 0.00 0.00 0.00 54 998.0
20260504140231 62 219 0.0 7.0 0.00 0.00 0.00 54 998.0
20260504130643 60 223 0.0 13.0 0.00 0.00 0.00 54 997.5
20260504130445 60 223 0.0 13.0 0.00 0.00 0.00 54 997.4
20260504130243 60 252 0.0 13.0 0.00 0.00 0.00 53 997.5
20260504130134 60 266 0.0 13.0 0.00 0.00 0.00 53 997.5
20260504120144 58 227 0.0 13.0 0.00 0.00 0.00 53 996.8
20260504110714 59 179 0.0 13.0 0.00 0.00 0.00 50 996.1
20260504110413 58 216 0.0 13.0 0.00 0.00 0.00 50 996.1
20260504110217 58 216 0.0 13.0 0.00 0.00 0.00 50 996.1
20260504100447 58 206 0.0 9.0 0.00 0.00 0.00 51 996.6
20260504100351 58 206 0.0 9.0 0.00 0.00 0.00 51 996.6
20260504100347 58 206 0.0 9.0 0.00 0.00 0.00 51 996.6
20260504081936 57 206 0.0 10.0 0.00 0.00 0.00 51 998.3
20260504081701 57 209 0.0 9.0 0.00 0.00 0.00 51 998.4
20260504081629 57 210 0.0 9.0 0.00 0.00 0.00 51 998.4
20260504081458 57 204 0.0 9.0 0.00 0.00 0.00 51 998.5
20260504081450 57 234 0.0 9.0 0.00 0.00 0.00 51 998.4
20260504081421 57 193 0.0 9.0 0.00 0.00 0.00 51 998.5
20260504081029 57 216 0.0 10.0 0.00 0.00 0.00 51 998.6
20260504080830 57 216 0.0 10.0 0.00 0.00 0.00 51 998.7
20260504080702 57 197 0.0 10.0 0.00 0.00 0.00 51 998.6
20260504080603 57 214 0.0 10.0 0.00 0.00 0.00 50 998.5
20260504080448 57 212 0.0 10.0 0.00 0.00 0.00 50 998.7
20260504080439 57 217 0.0 10.0 0.00 0.00 0.00 50 998.7
20260504080135 57 212 0.0 10.0 0.00 0.00 0.00 50 998.7
20260504070343 57 237 0.0 6.0 0.00 0.00 0.00 50 999.5
20260504070117 57 213 0.0 7.0 0.00 0.00 0.00 50 999.7
20260504060204 0 0.0 0.0 0.00 0.00 0.00 1001.0
20260504050702 49 257 0.0 0.0 0.00 0.00 0.00 74 1001.7
20260504050502 49 257 0.0 0.0 0.00 0.00 0.00 74 1001.8
20260504050403 49 257 0.0 0.0 0.00 0.00 0.00 74 1001.9
20260504050229 49 257 0.0 0.0 0.00 0.00 0.00 73 1001.8
20260504045906 49 257 0.0 0.0 0.00 0.00 0.00 73 1001.9
20260504045831 49 257 0.0 0.0 0.00 0.00 0.00 73 1001.9
20260504045727 49 257 0.0 0.0 0.00 0.00 0.00 73 1001.9
20260504045410 49 257 0.0 0.0 0.00 0.00 0.00 73 1002.0
20260504045405 49 257 0.0 0.0 0.00 0.00 0.00 73 1002.0
20260504045202 49 257 0.0 0.0 0.00 0.00 0.00 73 1002.0
20260504045008 49 257 0.0 0.0 0.00 0.00 0.00 73 1002.1
20260504044853 49 257 0.0 0.0 0.00 0.00 0.00 73 1002.1
20260504044802 49 257 0.0 0.0 0.00 0.00 0.00 73 1002.1
20260504044603 49 257 0.0 0.0 0.00 0.00 0.00 73 1002.1
20260504044350 49 257 0.0 0.0 0.00 0.00 0.00 73 1002.2
20260504044156 49 257 0.0 0.0 0.00 0.00 0.00 72 1002.2
20260504043945 49 257 0.0 0.0 0.00 0.00 0.00 72 1002.3
20260504043847 49 257 0.0 0.0 0.00 0.00 0.00 72 1002.3
20260504043733 50 257 0.0 0.0 0.00 0.00 0.00 69 1002.3
20260504043535 50 257 0.0 0.0 0.00 0.00 0.00 69 1002.4
20260504043335 50 257 0.0 0.0 0.00 0.00 0.00 69 1002.4
20260504043110 50 257 0.0 0.0 0.00 0.00 0.00 69 1002.4
20260504042947 50 257 0.0 0.0 0.00 0.00 0.00 69 1002.4
20260504042837 50 257 0.0 0.0 0.00 0.00 0.00 69 1002.5
20260504042647 50 257 0.0 0.0 0.00 0.00 0.00 69 1002.5
20260504042432 50 257 0.0 0.0 0.00 0.00 0.00 69 1002.5
20260504042330 50 257 0.0 0.0 0.00 0.00 0.00 69 1002.5
20260504042232 50 257 0.0 0.0 0.00 0.00 0.00 67 1002.6
20260504042036 50 257 0.0 0.0 0.00 0.00 0.00 67 1002.6
20260504041806 50 257 0.0 0.0 0.00 0.00 0.00 67 1002.6
20260504041618 50 257 0.0 0.0 0.00 0.00 0.00 67 1002.6
20260504041614 50 257 0.0 0.0 0.00 0.00 0.00 67 1002.6
20260504041544 50 257 0.0 0.0 0.00 0.00 0.00 67 1002.6
20260504041250 50 257 0.0 0.0 0.00 0.00 0.00 67 1002.6
20260504041157 50 257 0.0 0.0 0.00 0.00 0.00 67 1002.7
20260504041112 50 257 0.0 0.0 0.00 0.00 0.00 67 1002.7
20260504040734 51 257 0.0 0.0 0.00 0.00 0.00 67 1002.7
20260504040535 51 257 0.0 0.0 0.00 0.00 0.00 67 1002.7
20260504040334 51 257 0.0 0.0 0.00 0.00 0.00 67 1002.8
20260504040237 51 257 0.0 0.0 0.00 0.00 0.00 68 1002.9
20260504040141 51 257 0.0 0.0 0.00 0.00 0.00 63 1002.9
20260504040108 51 257 0.0 0.0 0.00 0.00 0.00 68 1002.9
20260504035732 51 257 0.0 0.0 0.00 0.00 0.00 63 1002.9
20260504035532 51 257 0.0 0.0 0.00 0.00 0.00 63 1003.0
20260504035317 51 257 0.0 0.0 0.00 0.00 0.00 63 1003.0
20260504035131 51 257 0.0 0.0 0.00 0.00 0.00 63 1003.0
20260504035111 52 257 0.0 0.0 0.00 0.00 0.00 63 1003.1
20260504035049 51 257 0.0 0.0 0.00 0.00 0.00 63 1003.1
20260504034735 52 257 0.0 0.0 0.00 0.00 0.00 63 1003.1
20260504034622 52 257 0.0 0.0 0.00 0.00 0.00 63 1003.1
20260504034303 52 257 0.0 0.0 0.00 0.00 0.00 63 1003.2
20260504034117 52 257 0.0 0.0 0.00 0.00 0.00 63 1003.3
20260504034105 52 257 0.0 0.0 0.00 0.00 0.00 63 1003.3
20260504034038 52 257 0.0 0.0 0.00 0.00 0.00 63 1003.2
20260504033718 52 257 0.0 0.0 0.00 0.00 0.00 63 1003.3
20260504033509 52 257 0.0 0.0 0.00 0.00 0.00 58 1003.3
20260504033308 52 257 0.0 0.0 0.00 0.00 0.00 58 1003.4
20260504033107 52 257 0.0 0.0 0.00 0.00 0.00 58 1003.4
20260504033010 52 257 0.0 0.0 0.00 0.00 0.00 58 1003.4
20260504032708 52 257 0.0 0.0 0.00 0.00 0.00 58 1003.5
20260504032519 53 257 0.0 0.0 0.00 0.00 0.00 58 1003.4
20260504032513 53 257 0.0 0.0 0.00 0.00 0.00 58 1003.5
20260504032443 53 257 0.0 0.0 0.00 0.00 0.00 58 1003.4
20260504032032 53 257 0.0 0.0 0.00 0.00 0.00 58 1003.5
20260504031832 53 257 0.0 0.0 0.00 0.00 0.00 58 1003.5
20260504031725 53 257 0.0 1.0 0.00 0.00 0.00 58 1003.4
20260504031631 53 257 0.0 2.0 0.00 0.00 0.00 58 1003.5